H1 CPF 2 NER 2023 2 7 9 038 01 glonass129 H2 1106402 9129 37868 2023 2 7 0 0 0 2023 2 10 23 45 0 900 1 1 0 0 0 1 H9 10 0 59982 0.00000 0 19759590.663 -13002844.337 -9573781.290 10 0 59982 900.00000 0 20612375.280 -13546354.210 -6566459.335 10 0 59982 1800.00000 0 21089920.850 -13972569.940 -3431806.106 10 0 59982 2700.00000 0 21204303.527 -14226701.604 -230646.881 10 0 59982 3600.00000 0 20979948.974 -14258955.346 2974986.585 10 0 59982 4500.00000 0 20452438.884 -14026818.877 6123051.356 10 0 59982 5400.00000 0 19666871.735 -13497049.959 9152683.098 10 0 59982 6300.00000 0 18675847.953 -12647285.408 12005358.185 10 0 59982 7200.00000 0 17537164.624 -11467204.144 14626006.820 10 0 59982 8100.00000 0 16311316.238 -9959196.382 16964057.268 10 0 59982 9000.00000 0 15058905.346 -8138511.377 18974392.783 10 0 59982 9900.00000 0 13838070.110 -6032877.373 20618204.613 10 0 59982 10800.00000 0 12702034.629 -3681608.739 21863726.439 10 0 59982 11700.00000 0 11696882.547 -1134235.907 22686837.671 10 0 59982 12600.00000 0 10859645.265 1551287.146 23071525.165 10 0 59982 13500.00000 0 10216783.249 4310726.126 23010195.155 10 0 59982 14400.00000 0 9783123.046 7075974.482 22503829.474 10 0 59982 15300.00000 0 9561294.324 9777629.427 21561982.465 10 0 59982 16200.00000 0 9541691.032 12347631.951 20202617.483 10 0 59982 17100.00000 0 9702959.539 14721863.640 18451784.338 10 0 59982 18000.00000 0 10012994.999 16842594.122 16343141.813 10 0 59982 18900.00000 0 10430406.095 18660678.270 13917332.082 10 0 59982 19800.00000 0 10906388.591 20137411.714 11221216.743 10 0 59982 20700.00000 0 11386930.470 21245966.502 8306987.142 10 0 59982 21600.00000 0 11815256.803 21972345.556 5231164.492 10 0 59982 22500.00000 0 12134411.515 22315814.245 2053508.021 10 0 59982 23400.00000 0 12289866.392 22288789.095 -1164148.044 10 0 59982 24300.00000 0 12232045.602 21916186.668 -4359105.778 10 0 59982 25200.00000 0 11918656.730 21234258.767 -7469038.663 10 0 59982 26100.00000 0 11316726.901 20288962.422 -10433224.838 10 0 59982 27000.00000 0 10404254.776 19133933.477 -13193752.574 10 0 59982 27900.00000 0 9171405.426 17828150.077 -15696672.324 10 0 59982 28800.00000 0 7621194.729 16433386.065 -17893070.675 10 0 59982 29700.00000 0 5769631.995 15011563.557 -19740043.330 10 0 59982 30600.00000 0 3645313.042 13622118.397 -21201546.494 10 0 59982 31500.00000 0 1288479.797 12319491.484 -22249108.906 10 0 59982 32400.00000 0 -1250414.425 11150853.260 -22862389.992 10 0 59982 33300.00000 0 -3912573.546 10154158.210 -23029573.179 10 0 59982 34200.00000 0 -6633082.279 9356611.581 -22747587.091 10 0 59982 35100.00000 0 -9343390.680 8773612.381 -22022151.158 10 0 59982 36000.00000 0 -11973954.960 8408215.889 -20867645.922 10 0 59982 36900.00000 0 -14456923.548 8251136.443 -19306811.965 10 0 59982 37800.00000 0 -16728755.957 8281287.984 -17370284.850 10 0 59982 38700.00000 0 -18732665.419 8466836.985 -15095976.708 10 0 59982 39600.00000 0 -20420784.106 8766720.688 -12528318.051 10 0 59982 40500.00000 0 -21755962.020 9132564.147 -9717375.954 10 0 59982 41400.00000 0 -22713126.427 9510913.108 -6717866.996 10 0 59982 42300.00000 0 -23280147.452 9845686.883 -3588085.150 10 0 59982 43200.00000 0 -23458176.378 10080746.752 -388766.163 10 0 59982 44100.00000 0 -23261445.293 10162471.137 2818089.207 10 0 59982 45000.00000 0 -22716539.109 10042229.175 5970410.240 10 0 59982 45900.00000 0 -21861172.677 9678649.122 9007246.878 10 0 59982 46800.00000 0 -20742525.897 9039587.069 11869933.721 10 0 59982 47700.00000 0 -19415207.503 8103714.293 14503206.052 10 0 59982 48600.00000 0 -17938932.951 6861657.561 16856247.887 10 0 59982 49500.00000 0 -16376012.982 5316645.223 18883653.584 10 0 59982 50400.00000 0 -14788756.634 3484632.186 20546286.274 10 0 59982 51300.00000 0 -13236895.476 1393898.001 21812018.414 10 0 59982 52200.00000 0 -11775134.569 -915866.447 22656341.765 10 0 59982 53100.00000 0 -10450930.355 -3394947.574 23062836.248 10 0 59982 54000.00000 0 -9302586.337 -5985417.852 23023489.385 10 0 59982 54900.00000 0 -8357744.595 -8623292.556 22538860.260 10 0 59982 55800.00000 0 -7632335.342 -11240948.030 21618084.308 10 0 59982 56700.00000 0 -7130028.279 -13769704.148 20278717.664 10 0 59982 57600.00000 0 -6842209.247 -16142466.390 18546422.362 10 0 59982 58500.00000 0 -6748484.350 -18296319.769 16454496.310 10 0 59982 59400.00000 0 -6817691.973 -20174967.958 14043254.786 10 0 59982 60300.00000 0 -7009381.928 -21730916.429 11359273.012 10 0 59982 61200.00000 0 -7275701.130 -22927307.980 8454502.332 10 0 59982 62100.00000 0 -7563607.575 -23739332.761 5385275.361 10 0 59982 63000.00000 0 -7817319.831 -24155151.942 2211218.220 10 0 59982 63900.00000 0 -7980898.345 -24176294.262 -1005909.470 10 0 59982 64800.00000 0 -8000848.385 -23817506.744 -4203424.072 10 0 59982 65700.00000 0 -7828632.634 -23106064.107 -7318952.417 10 0 59982 66600.00000 0 -7422984.580 -22080564.757 -10291665.746 10 0 59982 67500.00000 0 -6751921.802 -20789263.549 -13063487.133 10 0 59982 68400.00000 0 -5794370.861 -19288011.797 -15580246.717 10 0 59982 69300.00000 0 -4541332.054 -17637892.311 -17792760.035 10 0 59982 70200.00000 0 -2996532.161 -15902650.550 -19657806.450 10 0 59982 71100.00000 0 -1176535.496 -14146031.913 -21138986.957 10 0 59982 72000.00000 0 889692.850 -12429139.133 -22207443.435 10 0 59982 72900.00000 0 3161753.977 -10807922.595 -22842424.686 10 0 59982 73800.00000 0 5589271.844 -9330910.307 -23031688.102 10 0 59982 74700.00000 0 8113778.092 -8037273.484 -22771729.477 10 0 59982 75600.00000 0 10670945.280 -6955308.794 -22067837.338 10 0 59982 76500.00000 0 13193074.137 -6101399.991 -20933971.839 10 0 59982 77400.00000 0 15611729.910 -5479500.817 -19392471.987 10 0 59982 78300.00000 0 17860416.997 -5081158.507 -17473598.429 10 0 59982 79200.00000 0 19877179.917 -4886074.099 -15214922.242 10 0 59982 80100.00000 0 21607022.228 -4863173.006 -12660573.209 10 0 59982 81000.00000 0 23004043.232 -4972137.764 -9860363.623 10 0 59982 81900.00000 0 24033204.648 -5165335.738 -6868805.881 10 0 59982 82800.00000 0 24671655.320 -5390058.266 -3744044.041 10 0 59982 83700.00000 0 24909560.938 -5590975.196 -546720.791 10 0 59982 84600.00000 0 24750406.535 -5712700.317 2661197.815 10 0 59982 85500.00000 0 24210761.613 -5702359.213 5817617.006 10 0 59983 0.00000 0 23319520.070 -5512051.597 8861504.369 10 0 59983 900.00000 0 22116647.966 -5101105.027 11734056.699 10 0 59983 1800.00000 0 20651493.978 -4438026.471 14379817.190 10 0 59983 2700.00000 0 18980732.020 -3502070.409 16747728.364 10 0 59983 3600.00000 0 17166022.810 -2284358.727 18792098.032 10 0 59983 4500.00000 0 15271490.553 -788505.866 20473463.168 10 0 59983 5400.00000 0 13361118.487 969277.104 21759336.566 10 0 59983 6300.00000 0 11496169.798 2960604.659 22624823.494 10 0 59983 7200.00000 0 9732739.191 5145849.234 23053097.707 10 0 59983 8100.00000 0 8119534.952 7475547.300 23035728.377 10 0 59983 9000.00000 0 6695982.038 9892223.417 22572851.805 10 0 59983 9900.00000 0 5490723.913 12332559.468 21673184.074 10 0 59983 10800.00000 0 4520584.882 14729822.061 20353873.276 10 0 59983 11700.00000 0 3790036.221 17016450.103 18640192.463 10 0 59983 12600.00000 0 3291189.051 19126697.203 16565077.127 10 0 59983 13500.00000 0 3004315.371 20999220.592 14168513.806 10 0 59983 14400.00000 0 2898876.862 22579509.371 11496789.212 10 0 59983 15300.00000 0 2935019.719 23822050.544 8601612.297 10 0 59983 16200.00000 0 3065473.892 24692141.262 5539124.469 10 0 59983 17100.00000 0 3237777.435 25167269.674 2368815.938 10 0 59983 18000.00000 0 3396732.213 25238004.292 -847631.238 10 0 59983 18900.00000 0 3486986.473 24908352.199 -4047550.718 10 0 59983 19800.00000 0 3455633.581 24195568.846 -7168525.701 10 0 59983 20700.00000 0 3254714.736 23129425.667 -10149623.455 10 0 59983 21600.00000 0 2843516.978 21750965.208 -12932604.612 10 0 59983 22500.00000 0 2190566.216 20110795.748 -15463081.544 10 0 59983 23400.00000 0 1275227.903 18266997.586 -17691601.035 10 0 59983 24300.00000 0 88844.839 16282730.107 -19574628.138 10 0 59983 25200.00000 0 -1364638.301 14223641.764 -21075410.393 10 0 59983 26100.00000 0 -3068591.845 12155193.585 -22164704.301 10 0 59983 27000.00000 0 -4994163.978 10140010.309 -22821349.212 10 0 59983 27900.00000 0 -7101270.534 8235371.708 -23032677.310 10 0 59983 28800.00000 0 -9340069.911 6490950.169 -22794752.002 10 0 59983 29700.00000 0 -11652860.576 4946889.519 -22112430.902 10 0 59983 30600.00000 0 -13976320.694 3632304.933 -20999253.290 10 0 59983 31500.00000 0 -16243995.023 2564265.340 -19477155.632 10 0 59983 32400.00000 0 -18388924.129 1747298.778 -17576022.216 10 0 59983 33300.00000 0 -20346305.295 1173438.654 -15333081.226 10 0 59983 34200.00000 0 -22056073.652 822805.843 -12792159.566 10 0 59983 35100.00000 0 -23465295.942 664698.881 -10002812.360 10 0 59983 36000.00000 0 -24530277.691 659143.286 -7019345.305 10 0 59983 36900.00000 0 -25218297.050 758831.982 -3899749.943 10 0 59983 37800.00000 0 -25508894.642 911372.876 -704573.265 10 0 59983 38700.00000 0 -25394667.575 1061747.270 2504256.028 10 0 59983 39600.00000 0 -24881536.622 1154874.657 5664621.774 10 0 59983 40500.00000 0 -23988477.546 1138175.602 8715412.376 10 0 59983 41400.00000 0 -22746729.578 964025.204 11597688.331 10 0 59983 42300.00000 0 -21198515.467 591994.687 14255803.832 10 0 59983 43200.00000 0 -19395327.177 -9212.070 16638462.288 10 0 59983 44100.00000 0 -17395848.719 -860207.364 18699687.154 10 0 59983 45000.00000 0 -15263601.923 -1969818.156 20399691.165 10 0 59983 45900.00000 0 -13064411.746 -3334480.073 21705629.038 10 0 59983 46800.00000 0 -10863794.658 -4938152.631 22592220.785 10 0 59983 47700.00000 0 -8724376.474 -6752760.320 23042234.855 10 0 59983 48600.00000 0 -6703444.671 -8739142.983 23046822.574 10 0 59983 49500.00000 0 -4850734.762 -10848478.357 22605697.621 10 0 59983 50400.00000 0 -3206541.062 -13024120.418 21727156.580 10 0 59983 51300.00000 0 -1800229.250 -15203780.126 20427939.071 10 0 59983 52200.00000 0 -649212.156 -17321960.770 18732928.474 10 0 59983 53100.00000 0 241568.367 -19312549.106 16674696.921 10 0 59983 54000.00000 0 879631.106 -21111456.248 14292901.011 10 0 59983 54900.00000 0 1284415.992 -22659199.288 11633537.512 10 0 59983 55800.00000 0 1486236.713 -23903315.955 8748071.326 10 0 59983 56700.00000 0 1524768.199 -24800510.578 5692450.781 10 0 59983 57600.00000 0 1447131.683 -25318439.899 2526028.116 10 0 59983 58500.00000 0 1305657.730 -25437061.621 -689594.393 10 0 59983 59400.00000 0 1155421.991 -25149486.553 -3891770.091 10 0 59983 60300.00000 0 1051658.943 -24462295.960 -7018041.083 10 0 59983 61200.00000 0 1047164.896 -23395308.485 -10007373.335 10 0 59983 62100.00000 0 1189802.565 -21980804.680 -12801367.833 10 0 59983 63000.00000 0 1520215.711 -20262240.718 -15345422.048 10 0 59983 63900.00000 0 2069853.514 -18292505.114 -17589816.859 10 0 59983 64800.00000 0 2859391.112 -16131792.209 -19490705.762 10 0 59983 65700.00000 0 3897615.576 -13845182.830 -21010985.390 10 0 59983 66600.00000 0 5180826.318 -11500035.184 -22121029.118 10 0 59983 67500.00000 0 6692776.566 -9163297.034 -22799268.734 10 0 59983 68400.00000 0 8405158.985 -6898853.250 -23032612.683 10 0 59983 69300.00000 0 10278615.030 -4765020.939 -22816693.028 10 0 59983 70200.00000 0 12264225.036 -2812297.422 -22155937.086 10 0 59983 71100.00000 0 14305415.577 -1081455.032 -21063463.465 10 0 59983 72000.00000 0 16340202.923 397938.665 -19560805.874 10 0 59983 72900.00000 0 18303677.414 1608515.165 -17677471.619 10 0 59983 73800.00000 0 20130623.704 2545574.786 -15450344.936 10 0 59983 74700.00000 0 21758166.491 3217015.301 -12922948.345 10 0 59983 75600.00000 0 23128330.764 3642725.758 -10144577.840 10 0 59983 76500.00000 0 24190409.743 3853474.414 -7169330.015 10 0 59983 77400.00000 0 24903042.214 3889340.643 -4055041.094 10 0 59983 78300.00000 0 25235913.676 3797759.589 -862159.259 10 0 59983 79200.00000 0 25171011.785 3631263.978 2347427.472 10 0 59983 80100.00000 0 24703385.468 3445019.624 5511584.960 10 0 59983 81000.00000 0 23841377.887 3294259.100 8569125.560 10 0 59983 81900.00000 0 22606325.220 3231721.603 11460977.299 10 0 59983 82800.00000 0 21031735.173 3305206.176 14131308.161 10 0 59983 83700.00000 0 19161980.295 3555340.189 16528585.270 10 0 59983 84600.00000 0 17050560.639 4013655.704 18606550.268 10 0 59983 85500.00000 0 14758007.575 4701053.398 20325093.882 10 0 59984 0.00000 0 12349514.863 5626717.625 21651014.579 10 0 59984 900.00000 0 9892392.296 6787528.425 22558648.938 10 0 59984 1800.00000 0 7453448.651 8167994.289 23030361.191 10 0 59984 2700.00000 0 5096405.888 9740711.396 23056885.654 10 0 59984 3600.00000 0 2879452.689 11467330.983 22637513.794 10 0 59984 4500.00000 0 853035.579 13299997.462 21780122.653 10 0 59984 5400.00000 0 -942022.038 15183200.186 20501042.877 10 0 59984 6300.00000 0 -2475995.688 17055964.637 18824767.216 10 0 59984 7200.00000 0 -3731269.333 18854294.402 16783503.059 10 0 59984 8100.00000 0 -4702836.137 20513764.263 14416575.300 10 0 59984 9000.00000 0 -5398268.698 21972157.613 11769688.674 10 0 59984 9900.00000 0 -5837158.797 23172038.455 8894061.656 10 0 59984 10800.00000 0 -6050048.915 24063149.907 5845446.890 10 0 59984 11700.00000 0 -6076899.321 24604537.397 2683055.849 10 0 59984 12600.00000 0 -5965154.665 24766305.312 -531591.919 10 0 59984 13500.00000 0 -5767491.559 24530930.756 -3735872.481 10 0 59984 14400.00000 0 -5539342.976 23894076.348 -6867289.904 10 0 59984 15300.00000 0 -5336305.574 22864865.188 -9864711.874 10 0 59984 16200.00000 0 -5211541.675 21465604.074 -12669582.629 10 0 59984 17100.00000 0 -5213288.429 19730964.913 -15227087.443 10 0 59984 18000.00000 0 -5382582.367 17706657.816 -17487243.777 10 0 59984 18900.00000 0 -5751298.405 15447651.428 -19405895.797 10 0 59984 19800.00000 0 -6340588.796 13016015.772 -20945591.177 10 0 59984 20700.00000 0 -7159790.043 10478479.192 -22076321.818 10 0 59984 21600.00000 0 -8205845.429 7903803.184 -22776113.279 10 0 59984 22500.00000 0 -9463268.297 5360086.451 -23031451.250 10 0 59984 23400.00000 0 -10904647.764 2912112.214 -22837537.028 10 0 59984 24300.00000 0 -12491675.102 618850.448 -22198367.768 10 0 59984 25200.00000 0 -14176646.690 -1468780.527 -21126641.052 10 0 59984 26100.00000 0 -15904379.124 -3309800.171 -19643486.987 10 0 59984 27000.00000 0 -17614454.723 -4874622.251 -17778034.571 10 0 59984 27900.00000 0 -19243701.919 -6146023.085 -15566822.333 10 0 59984 28800.00000 0 -20728805.448 -7119583.827 -13053066.289 10 0 59984 29700.00000 0 -22008936.186 -7803591.541 -10285800.917 10 0 59984 30600.00000 0 -23028290.279 -8218406.697 -7318911.112 10 0 59984 31500.00000 0 -23738431.385 -8395327.030 -4210075.070 10 0 59984 32400.00000 0 -24100338.770 -8374998.625 -1019639.358 10 0 59984 33300.00000 0 -24086076.688 -8205443.619 2190551.532 10 0 59984 34200.00000 0 -23680016.684 -7939789.426 5358348.369 10 0 59984 35100.00000 0 -22879563.324 -7633796.230 8422490.328 10 0 59984 36000.00000 0 -21695354.582 -7343287.169 11323775.795 10 0 59984 36900.00000 0 -20150929.809 -7121589.083 14006189.281 10 0 59984 37800.00000 0 -18281879.955 -7017090.557 16417964.186 10 0 59984 38700.00000 0 -16134515.705 -7071018.711 18512562.648 10 0 59984 39600.00000 0 -13764108.507 -7315526.793 20249555.387 10 0 59984 40500.00000 0 -11232776.506 -7772171.660 21595386.428 10 0 59984 41400.00000 0 -8607101.387 -8450844.238 22524009.645 10 0 59984 42300.00000 0 -5955572.819 -9349197.621 23017386.102 10 0 59984 43200.00000 0 -3345963.941 -10452597.338 23065833.470 10 0 59984 44100.00000 0 -842744.107 -11734597.243 22668220.993 10 0 59984 45000.00000 0 1495366.174 -13157923.185 21832005.829 10 0 59984 45900.00000 0 3617598.655 -14675925.923 20573109.006 10 0 59984 46800.00000 0 5483009.029 -16234445.448 18915631.733 10 0 59984 47700.00000 0 7061939.711 -17774011.569 16891415.496 10 0 59984 48600.00000 0 8337012.835 -19232291.257 14539452.075 10 0 59984 49500.00000 0 9303611.439 -20546682.143 11905152.505 10 0 59984 50400.00000 0 9969827.648 -21656944.602 9039486.932 10 0 59984 51300.00000 0 10355878.762 -22507762.066 5998010.177 10 0 59984 52200.00000 0 10493014.555 -23051121.210 2839790.619 10 0 59984 53100.00000 0 10421960.775 -23248410.187 -373737.404 10 0 59984 54000.00000 0 10190964.026 -23072144.206 -3579975.264 10 0 59984 54900.00000 0 9853520.784 -22507242.942 -6716391.633 10 0 59984 55800.00000 0 9465887.438 -21551803.022 -9721758.580 10 0 59984 56700.00000 0 9084478.304 -20217330.284 -12537366.243 10 0 59984 57600.00000 0 8763263.873 -18528419.747 -15108190.313 10 0 59984 58500.00000 0 8551281.954 -16521895.121 -17383987.335 10 0 59984 59400.00000 0 8490369.644 -14245443.202 -19320294.490 10 0 59984 60300.00000 0 8613214.575 -11755800.383 -20879312.619 10 0 59984 61200.00000 0 8941809.918 -9116567.972 -22030653.971 10 0 59984 62100.00000 0 9486379.987 -6395748.885 -22751939.355 10 0 59984 63000.00000 0 10244822.699 -3663110.073 -23029232.802 10 0 59984 63900.00000 0 11202692.611 -987482.271 -22857305.549 10 0 59984 64800.00000 0 12333724.807 1565889.226 -22239724.913 10 0 59984 65700.00000 0 13600876.610 3937831.653 -21188767.410 10 0 59984 66600.00000 0 14957841.923 6077466.151 -19725159.161 10 0 59984 67500.00000 0 16350972.910 7944071.656 -17877650.125 10 0 59984 68400.00000 0 17721526.704 9508515.264 -15682432.051 10 0 59984 69300.00000 0 19008141.263 10754191.678 -13182413.024 10 0 59984 70200.00000 0 20149435.308 11677435.509 -10426364.209 10 0 59984 71100.00000 0 21086622.492 12287392.490 -7467956.663 10 0 59984 72000.00000 0 21766029.883 12605358.455 -4364708.074 10 0 59984 72900.00000 0 22141415.451 12663617.150 -1176860.655 10 0 59984 73800.00000 0 22175988.148 12503828.599 2033787.567 10 0 59984 74700.00000 0 21844047.081 12175038.120 5205075.292 10 0 59984 75600.00000 0 21132172.493 11731391.290 8275671.560 10 0 59984 76500.00000 0 20039920.105 11229651.804 11186248.080 10 0 59984 77400.00000 0 18579991.006 10726626.640 13880608.724 10 0 59984 78300.00000 0 16777870.842 10276606.136 16306755.827 10 0 59984 79200.00000 0 14670953.648 9928925.387 18417874.484 10 0 59984 80100.00000 0 12307186.488 9725747.930 20173217.639 10 0 59984 81000.00000 0 9743290.224 9700163.236 21538876.769 10 0 59984 81900.00000 0 7042628.652 9874676.561 22488424.990 10 0 59984 82800.00000 0 4272812.194 10260153.648 23003421.459 10 0 59984 83700.00000 0 1503132.908 10855264.378 23073768.225 10 0 59984 84600.00000 0 -1198065.626 11646449.290 22697912.920 10 0 59984 85500.00000 0 -3765977.188 12608411.766 21882892.962 10 0 59985 0.00000 0 -6141775.320 13705117.212 20644219.539 10 0 59985 900.00000 0 -8274810.959 14891260.536 19005601.248 10 0 59985 1800.00000 0 -10124471.922 16114141.661 16998512.439 10 0 59985 2700.00000 0 -11661631.498 17315874.996 14661610.038 10 0 59985 3600.00000 0 -12869622.214 18435840.929 12040009.288 10 0 59985 4500.00000 0 -13744694.500 19413278.436 9184429.638 10 0 59985 5400.00000 0 -14295939.571 20189910.360 6150225.518 10 0 59985 6300.00000 0 -14544678.399 20712490.519 2996319.492 10 0 59985 7200.00000 0 -14523341.202 20935164.056 -215942.127 10 0 59985 8100.00000 0 -14273883.809 20821539.427 -3423988.904 10 0 59985 9000.00000 0 -13845807.437 20346381.919 -6565257.035 10 0 59985 9900.00000 0 -13293865.950 19496854.241 -9578425.869 10 0 59985 10800.00000 0 -12675558.631 18273248.836 -12404634.269 10 0 59985 11700.00000 0 -12048516.279 16689178.299 -14988651.018 10 0 59985 12600.00000 0 -11467893.420 14771213.699 -17279974.237 10 0 59985 13500.00000 0 -10983879.352 12557984.523 -19233836.369 10 0 59985 14400.00000 0 -10639435.685 10098777.318 -20812093.383 10 0 59985 15300.00000 0 -10468358.127 7451691.868 -21983979.546 10 0 59985 16200.00000 0 -10493745.991 4681432.788 -22726712.254 10 0 59985 17100.00000 0 -10726945.066 1856829.962 -23025934.870 10 0 59985 18000.00000 0 -11167008.688 -951807.319 -22875989.178 10 0 59985 18900.00000 0 -11800699.351 -3675390.952 -22280012.846 10 0 59985 19800.00000 0 -12603029.765 -6248695.892 -21249861.075 10 0 59985 20700.00000 0 -13538319.060 -8612832.918 -19805855.287 10 0 59985 21600.00000 0 -14561717.883 -10717449.558 -17976365.257 10 0 59985 22500.00000 0 -15621136.304 -12522568.652 -15797234.400 10 0 59985 23400.00000 0 -16659491.594 -13999989.668 -13311060.967 10 0 59985 24300.00000 0 -17617179.791 -15134196.849 -10566350.634 10 0 59985 25200.00000 0 -18434665.945 -15922739.256 -7616558.232 10 0 59985 26100.00000 0 -19055083.499 -16376070.111 -4519038.404 10 0 59985 27000.00000 0 -19426733.422 -16516855.515 -1333926.368 10 0 59985 27900.00000 0 -19505378.508 -16378784.636 1877029.039 10 0 59985 28800.00000 0 -19256237.314 -16004933.955 5051657.243 10 0 59985 29700.00000 0 -18655595.222 -15445756.292 8128559.976 10 0 59985 30600.00000 0 -17691966.320 -14756780.295 11048285.116 10 0 59985 31500.00000 0 -16366758.634 -13996117.530 13754458.683 10 0 59985 32400.00000 0 -14694415.747 -13221881.480 16194854.628 10 0 59985 33300.00000 0 -12702029.311 -12489625.882 18322383.476 10 0 59985 34200.00000 0 -10428438.385 -11849908.418 20095982.595 10 0 59985 35100.00000 0 -7922852.214 -11346080.286 21481392.767 10 0 59985 36000.00000 0 -5243052.087 -11012392.645 22451807.810 10 0 59985 36900.00000 0 -2453244.795 -10872497.969 22988386.004 10 0 59985 37800.00000 0 378345.936 -10938408.244 23080614.396 10 0 59985 38700.00000 0 3182053.094 -11209953.512 22726519.214 10 0 59985 39600.00000 0 5889401.264 -11674764.096 21932717.970 10 0 59985 40500.00000 0 8435696.181 -12308778.608 20714311.241 10 0 59985 41400.00000 0 10762463.669 -13077258.421 19094614.634 10 0 59985 42300.00000 0 12819638.136 -13936268.444 17104734.039 10 0 59985 43200.00000 0 14567410.348 -14834564.492 14782990.078 10 0 59985 44100.00000 0 15977657.486 -15715810.255 12174200.440 10 0 59985 45000.00000 0 17034895.018 -16521032.350 9328831.790 10 0 59985 45900.00000 0 17736709.410 -17191211.166 6302035.779 10 0 59985 46800.00000 0 18093652.008 -17669898.393 3152586.503 10 0 59985 47700.00000 0 18128597.085 -17905750.023 -58260.614 10 0 59985 48600.00000 0 17875589.814 -17854866.151 -3267966.301 10 0 59985 49500.00000 0 17378231.994 -17482836.331 -6413937.279 10 0 59985 50400.00000 0 16687673.548 -16766401.124 -9434763.120 10 0 59985 51300.00000 0 15860295.231 -15694656.559 -12271434.231 10 0 59985 52200.00000 0 14955181.764 -14269747.616 -14868515.130 10 0 59985 53100.00000 0 14031494.042 -12507018.851 -17175247.943 10 0 59985 54000.00000 0 13145853.663 -10434613.760 -19146562.550 10 0 59985 54900.00000 0 12349852.557 -8092538.390 -20743971.940 10 0 59985 55800.00000 0 11687795.015 -5531227.970 -21936333.967 10 0 59985 56700.00000 0 11194769.124 -2809676.804 -22700463.822 10 0 59985 57600.00000 0 10895130.065 6789.656 -23021585.032 10 0 59985 58500.00000 0 10801459.623 2849006.326 -22893610.377 10 0 59985 59400.00000 0 10914045.430 5646618.477 -22319247.953 10 0 59985 60300.00000 0 11220900.817 8330778.677 -21309931.368 10 0 59985 61200.00000 0 11698322.848 10836777.587 -19885576.732 10 0 59985 62100.00000 0 12311963.028 13106498.956 -18074172.711 10 0 59985 63000.00000 0 13018363.378 15090597.064 -15911213.146 10 0 59985 63900.00000 0 13766890.988 16750307.152 -13438984.917 10 0 59985 64800.00000 0 14501987.592 18058815.297 -10705726.355 10 0 59985 65700.00000 0 15165637.798 19002133.125 -7764673.913 10 0 59985 66600.00000 0 15699950.899 19579443.778 -4673016.767 10 0 59985 67500.00000 0 16049747.017 19802907.848 -1490780.479 10 0 59985 68400.00000 0 16165038.695 19696940.535 1720338.121 10 0 59985 69300.00000 0 16003304.087 19296993.133 4898162.079 10 0 59985 70200.00000 0 15531457.057 18647892.266 7981228.725 10 0 59985 71100.00000 0 14727432.557 17801808.133 10909964.927 10 0 59985 72000.00000 0 13581321.941 16815937.845 13627821.564 10 0 59985 72900.00000 0 12096011.542 15750001.036 16082346.738 10 0 59985 73800.00000 0 10287298.367 14663652.015 18226178.759 10 0 59985 74700.00000 0 8183478.028 13613915.644 20017941.562 10 0 59985 75600.00000 0 5824421.401 12652752.582 21423027.148 10 0 59985 76500.00000 0 3260177.010 11824853.997 22414251.676 10 0 59985 77400.00000 0 549155.188 11165756.280 22972373.891 10 0 59985 78300.00000 0 -2244033.206 10700353.279 23086466.807 10 0 59985 79200.00000 0 -5050996.811 10441867.452 22754135.801 10 0 59985 80100.00000 0 -7802145.193 10391322.921 21981578.559 10 0 59985 81000.00000 0 -10429327.526 10537543.104 20783484.754 10 0 59985 81900.00000 0 -12868421.542 10857674.337 19182775.829 10 0 59985 82800.00000 0 -15061767.055 11318215.396 17210187.863 10 0 59985 83700.00000 0 -16960343.987 11876511.837 14903703.281 10 0 59985 84600.00000 0 -18525604.467 12482654.494 12307839.949 10 0 59985 85500.00000 0 -19730882.042 13081704.130 9472809.210 99